Regional Weather Roundup
Issued by NWS Goodland, KS

Home | Current Version | Previous Version | Graphics & Text | Print | Product List | Glossary On
Versions: 1 2 3 4 5 6 7 8 9 10 11 12 13 14 15 16 17 18 19 20 21 22 23 24 25 26 27 28 29 30 31 32 33 34 35 36 37 38 39 40 41 42 43 44 45 46 47 48 49 50
000
ASUS43 KGLD 041308
RWRGLD

GOODLAND FORECAST AREA HOURLY WEATHER ROUNDUP
NATIONAL WEATHER SERVICE GOODLAND KS
700 AM MDT SAT JUL 04 2015

...OFFICIAL OBSERVATIONS...

CITY           SKY/WX    TMP DP  RH WIND       PRES   REMARKS
GOODLAND KS    MOSUNNY   66  61  84 S14       29.99F
HILL CITY KS   SUNNY     66  62  87 SE5       30.00S
IMPERIAL NEB   SUNNY     67  59  75 SE8       29.97F
MCCOOK NEB     SUNNY     66  60  81 E7        29.98F
AKRON CO       CLOUDY    63  60  90 S9        30.00S
BURLINGTON CO  SUNNY     62  59  90 S14       30.02S
LIMON CO       SUNNY     57  57 100 SE3       30.07R
$$

...UNOFFICIAL OBSERVATIONS...

CITY           SKY/WX    TMP DP  RH WIND       PRES   REMARKS
COLBY KS       SUNNY     70  63  78 SE15      30.00F
GOVE KS          N/A     66  32  28 MISG        N/A
NORTON KS      SUNNY     64  57  77 SE7       29.98F
SHARON SPRINGS   N/A     66  62  87 S10         N/A
KIT CARSON CO    N/A     62  58  88 MISG        N/A
YUMA CO          N/A     63  61  93 CALM        N/A
$$


USA.gov is the U.S. government's official web portal to all federal, state and local government web resources and services.